Location: Ferchesar
(52.6477°N, 12.4298°E)
Time: 08:31:31
(UTC+01:00)

deb Explorer IX - All Passes

Search period start: 07 December 2021 00:00
Search period end: 17 December 2021 00:00
Orbit: 545 x 1085 km, 38.8° (Epoch: 06 December)

Date Brightness Start Highest point End Pass type
(mag) Time Alt. Az. Time Alt. Az. Time Alt. Az.
07 Dec - 09:57:35 10° SSW 09:59:40 13° S 10:01:39 10° SE daylight
07 Dec - 11:43:06 10° SW 11:45:12 13° S 11:47:14 10° SSE daylight
08 Dec - 09:32:20 10° SSW 09:34:41 13° S 09:36:54 10° SE daylight
08 Dec - 11:17:55 10° SW 11:20:14 14° S 11:22:27 10° SSE daylight
09 Dec - 09:07:03 10° SSW 09:09:41 14° S 09:12:08 10° SE daylight
09 Dec - 10:52:42 10° SW 10:55:15 14° S 10:57:40 10° SSE daylight
10 Dec - 08:41:46 10° SSW 08:44:39 15° S 08:47:21 10° SE daylight
10 Dec - 10:27:27 10° SW 10:30:15 15° S 10:32:53 10° SSE daylight
11 Dec - 08:16:27 10° SSW 08:19:36 15° S 08:22:32 10° SE daylight
11 Dec - 10:02:10 10° SW 10:05:14 16° S 10:08:05 10° SSE daylight
12 Dec - 07:51:08 10° SSW 07:54:32 16° S 07:57:41 10° SE daylight
12 Dec - 09:36:53 10° SW 09:40:12 17° S 09:43:15 10° SSE daylight
13 Dec - 07:25:47 10° SSW 07:29:27 17° S 07:32:49 10° SE visible
13 Dec - 09:11:34 10° SW 09:15:08 17° S 09:18:25 10° SSE daylight
14 Dec - 07:00:26 10° SSW 07:04:20 17° S 07:07:55 10° SE visible
14 Dec - 08:46:13 10° SW 08:50:03 18° S 08:53:33 10° SE daylight
14 Dec - 10:34:40 10° SW 10:35:28 10° SSW 10:36:16 10° SSW daylight
15 Dec - 06:35:04 10° SSW 06:39:11 18° S 06:42:59 10° SE visible
15 Dec - 08:20:52 10° SW 08:24:57 19° S 08:28:39 10° SE daylight
15 Dec - 10:08:54 10° SW 10:10:24 11° SSW 10:11:51 10° S daylight
16 Dec - 06:09:42 10° SSW 06:14:01 19° SSE 06:18:01 10° SE visible
16 Dec - 07:55:29 10° SW 07:59:49 20° S 08:03:44 10° SE daylight
16 Dec - 09:43:18 10° SW 09:45:18 12° SSW 09:47:13 10° S daylight
